Simultaneous Nadir Overpasses (SNOs) Predictions

Prediction of SNOs between METOP-A and TERRA Satellite Orbit:

Table of predicted SNOs for the next 14.0 days since TLE Epoch: 8/3/2013
Index Date (METOP-A) Time (METOP-A) Lat,Lon (METOP-A) SZA (METOP-A ) Date (TERRA) Time (TERRA) Lat,Lon (TERRA) SZA (TERRA ) Distance(km) Time Diff (sec)
1 08/05/2013 06:34:15 -81.29, -51.86 112.96 08/05/2013 06:34:45 -81.29, -51.79 112.94 1.28 30
2 08/05/2013 07:24:54 81.30, 116.07 67.13 08/05/2013 07:24:11 81.29, 115.97 67.09 1.88 43
3 08/08/2013 02:08:37 -81.30, 14.80 112.14 08/08/2013 02:09:00 -81.30, 14.93 112.11 2.28 23
4 08/08/2013 02:59:16 81.30,-177.28 67.94 08/08/2013 02:58:26 81.31,-177.34 67.91 1.12 50
5 08/10/2013 21:43:01 -81.29, 81.02 111.34 08/10/2013 21:43:17 -81.30, 81.20 111.32 2.95 16
6 08/10/2013 22:33:40 81.30,-111.07 68.74 08/10/2013 22:32:43 81.30,-111.10 68.71 0.68 57
7 08/13/2013 17:17:24 -81.30, 147.59 110.47 08/13/2013 17:17:33 -81.30, 147.77 110.44 3.18 9
8 08/13/2013 18:08:03 81.30, -44.50 69.62 08/13/2013 18:06:59 81.31, -44.55 69.58 0.74 64
9 08/16/2013 12:51:46 -81.30,-145.88 109.56 08/16/2013 12:51:48 -81.31,-145.72 109.54 3.00 2




NCC Satellite Simultaneous Nadir Overpasses (SNOs) Prediction Service
